Starlink 35807

operational
NORAD ID: 66368 Int'l Des: 2025-254 Owner: SPXS Country: US Constellation: starlink
LEOCIRCULAR

Starlink 35807について

説明を読み込み中...

リアルタイム位置

3D地球を読み込み中...

次回通過

高度履歴

Altitude vs Time

uPlot chart will show altitude changes over time

軌道要素

1 66368C 25254L 25311.11645833 .00521410 00000+0 77476-3 0 3114
2 66368 53.1602 93.7293 0009182 265.3639 111.5857 16.03527914 12
Epoch: Nov 7, 2025 • Age: 23 hours

現在のステータス

高度 264.5 km
速度 7.75 km/s
衛星直下点 -16.29°S, 110.41°W
打ち上げ日 Nov 6, 2025
運用期間 1 days
タイプ internet

技術仕様

分類 Payload
質量 575.00 kg
乾燥質量 530.00 kg
総質量 575.00 kg
長さ 0.30 m
直径 4.10 m
スパン 29.00 m
形状 Box + pan
製造者 SPXS
バスタイプ Starlink V2MO
フェーズステータス In Orbit
所有者/国 SPXS/US

大規模コンステレーション

Loading constellations...